User: anonymous   Login
Location: Caltech
(34.1382°N, 118.1253°W)
Time: 00:27:46
(UTC-08:00)
Language:

PAYLOAD A - Orbit

View from above orbital plane
View from above orbital plane
View from above satellite
View from above satellite

Ground track
Ground track

The orbit data is extracted from the following two-line orbital elements,

1 27840U 03031A   14355.57414197  .00000190  00000-0  72287-4 0  7262
2 27840 098.2205 016.5483 0097687 338.5556 178.4649 14.38758733602655
Epoch (UTC): 21 December 2014 13:46:45
Eccentricity: 0.0097687
inclination: 98.2205°
perigee height: 693 km
apogee height: 832 km
right ascension of ascending node: 16.5483°
argument of perigee: 338.5556°
revolutions per day: 14.38758733
mean anomaly at epoch: 178.4649°
orbit number at epoch: 60265

The dashed part of the orbit path shows where the satellite is in the earth's shadow,  

DLR